Starlink 11508

operational
NORAD ID: 62515 Int'l Des: 2025-004 Owner: SPXS Country: US Constellation: starlink
LEOCIRCULAR

About Starlink 11508

Description loading...

Live Position

Loading 3D Globe...

Upcoming Passes

Altitude History

Altitude vs Time

uPlot chart will show altitude changes over time

Two-Line Element Set

1 62515U 25004E 26035.01060300 .00379076 00000-0 28132-2 0 9996
2 62515 43.0002 273.5602 0001505 277.4204 82.6492 15.70940502 61913
Epoch: Feb 4, 2026 • Age: 12 hours

Current Status

Altitude 360.5 km
Velocity 7.69 km/s
Sub-Earth Point -24.90°S, 78.31°W
Launch Date Jan 8, 2025
Age 1 years
Type internet

Technical Details

Classification Payload
Mass 960.00 kg
Dry Mass 910.00 kg
Total Mass 960.00 kg
Length 0.30 m
Diameter 4.10 m
Span 29.00 m
Shape Box + pan
Manufacturer SPXS
Bus Type Starlink V2MD
Phase Status In Orbit
Owner/State SPXS/US

Large Constellations

Loading constellations...